Location: Hains Lake
(37.8540°N, 99.8578°W)
Time: 06:48:53
(UTC+00:00)

Vanguard 1 - Pass Details

Date: 20 April 2021
Orbit: 649 x 3834 km, 34.2° (Epoch: 04 May)

Event Time Altitude Azimuth Distance (km) Brightness Sun altitude
Rises 01:17:36 0° 282° (WNW) 7,200 18.0 -0.5°
Reaches altitude 10° 01:22:02 10° 279° (W) 6,450 16.3 -1.3°
Maximum altitude 01:44:17 65° 205° (SSW) 4,046 13.2 -5.5°
Drops below altitude 10° 02:04:33 10° 129° (SE) 5,937 13.4 -9.3°
Enters shadow 02:05:21 - 128° (SE) 6,074 13.5 -9.4°
